| time (UTC) | temp C | wind direction | speed KPH | gust KPH | rain 1hr cm | rain 24hr cm | rain mn cm | humidity % | barometer mb |
| 20260504034903 | 7 | 0 | 0.0 | 0.0 | 0.00 | 0.00 | 0.00 | 71 | 1018.4 |
| 20260504034704 | 7 | 0 | 0.0 | 0.0 | 0.00 | 0.00 | 0.00 | 70 | 1018.4 |
| 20260504034603 | 7 | 0 | 0.0 | 0.0 | 0.00 | 0.00 | 0.00 | 70 | 1018.4 |
| 20260504034504 | 7 | 0 | 0.0 | 0.0 | 0.00 | 0.00 | 0.00 | 70 | 1018.4 |
| 20260504034404 | 7 | 0 | 0.0 | 0.0 | 0.00 | 0.00 | 0.00 | 70 | 1018.4 |
| 20260504034204 | 7 | 0 | 0.0 | 0.0 | 0.00 | 0.00 | 0.00 | 69 | 1018.4 |
| 20260504033603 | 8 | 0 | 0.0 | 0.0 | 0.00 | 0.00 | 0.00 | 68 | 1018.2 |
| 20260504033503 | 8 | 0 | 0.0 | 0.0 | 0.00 | 0.00 | 0.00 | 67 | 1018.1 |
| 20260504033203 | 8 | 0 | 0.0 | 0.0 | 0.00 | 0.00 | 0.00 | 66 | 1018.2 |
| 20260504033103 | 8 | 0 | 0.0 | 0.0 | 0.00 | 0.00 | 0.00 | 65 | 1018.2 |
| 20260504033004 | 8 | 0 | 0.0 | 0.0 | 0.00 | 0.00 | 0.00 | 66 | 1018.3 |
| 20260504032804 | 8 | 0 | 0.0 | 0.0 | 0.00 | 0.00 | 0.00 | 64 | 1018.3 |
| 20260504032504 | 9 | 0 | 0.0 | 0.0 | 0.00 | 0.00 | 0.00 | 65 | 1018.3 |
| 20260504032304 | 8 | 0 | 0.0 | 0.0 | 0.00 | 0.00 | 0.00 | 64 | 1018.3 |
| 20260504032104 | 8 | 0 | 0.0 | 0.0 | 0.00 | 0.00 | 0.00 | 64 | 1018.4 |
| 20260504031903 | 8 | 0 | 0.0 | 0.0 | 0.00 | 0.00 | 0.00 | 64 | 1018.4 |
| 20260504031804 | 8 | 0 | 0.0 | 0.0 | 0.00 | 0.00 | 0.00 | 64 | 1018.4 |
| 20260504031704 | 8 | 0 | 0.0 | 0.0 | 0.00 | 0.00 | 0.00 | 64 | 1018.3 |
| 20260504031603 | 8 | 0 | 0.0 | 0.0 | 0.00 | 0.00 | 0.00 | 64 | 1018.3 |
| 20260504031403 | 8 | 0 | 0.0 | 0.0 | 0.00 | 0.00 | 0.00 | 64 | 1018.3 |
| 20260504031103 | 8 | 0 | 0.0 | 0.0 | 0.00 | 0.00 | 0.00 | 64 | 1018.3 |
| 20260504030703 | 8 | 0 | 0.0 | 0.0 | 0.00 | 0.00 | 0.00 | 64 | 1018.4 |
| 20260504030604 | 9 | 0 | 0.0 | 0.0 | 0.00 | 0.00 | 0.00 | 64 | 1018.4 |
| 20260504030503 | 9 | 0 | 0.0 | 0.0 | 0.00 | 0.00 | 0.00 | 63 | 1018.4 |
| 20260504030304 | 9 | 0 | 0.0 | 0.0 | 0.00 | 0.00 | 0.00 | 63 | 1018.4 |
| 20260504030003 | 9 | 0 | 0.0 | 0.0 | 0.00 | 0.00 | 0.00 | 63 | 1018.4 |
| 20260504025903 | 9 | 0 | 0.0 | 0.0 | 0.00 | 0.00 | 0.00 | 63 | 1018.4 |
| 20260504025804 | 9 | 0 | 0.0 | 0.0 | 0.00 | 0.00 | 0.00 | 63 | 1018.3 |
| 20260504025703 | 9 | 0 | 0.0 | 0.0 | 0.00 | 0.00 | 0.00 | 64 | 1018.3 |
| 20260504025403 | 9 | 0 | 0.0 | 0.0 | 0.00 | 0.00 | 0.00 | 64 | 1018.4 |
| 20260504025304 | 9 | 0 | 0.0 | 0.0 | 0.00 | 0.00 | 0.00 | 65 | 1018.4 |
| 20260504024904 | 9 | 0 | 0.0 | 0.0 | 0.00 | 0.00 | 0.00 | 65 | 1018.4 |
| 20260504024704 | 9 | 0 | 0.0 | 0.0 | 0.00 | 0.00 | 0.00 | 65 | 1018.4 |
| 20260504024504 | 9 | 0 | 0.0 | 0.0 | 0.00 | 0.00 | 0.00 | 64 | 1018.4 |
| 20260504024404 | 8 | 0 | 0.0 | 0.0 | 0.00 | 0.00 | 0.00 | 64 | 1018.4 |
| 20260504024303 | 8 | 0 | 0.0 | 0.0 | 0.00 | 0.00 | 0.00 | 65 | 1018.4 |
| 20260504024004 | 8 | 0 | 0.0 | 0.0 | 0.00 | 0.00 | 0.00 | 65 | 1018.5 |
| 20260504023804 | 8 | 0 | 0.0 | 0.0 | 0.00 | 0.00 | 0.00 | 66 | 1018.6 |
| 20260504023703 | 8 | 0 | 0.0 | 0.0 | 0.00 | 0.00 | 0.00 | 66 | 1018.6 |
| 20260504023204 | 8 | 0 | 0.0 | 0.0 | 0.00 | 0.00 | 0.00 | 64 | 1018.5 |
| 20260504022903 | 9 | 0 | 0.0 | 0.0 | 0.00 | 0.00 | 0.00 | 63 | 1018.5 |
| 20260504022504 | 9 | 0 | 0.0 | 0.0 | 0.00 | 0.00 | 0.00 | 63 | 1018.4 |
| 20260504022404 | 9 | 0 | 0.0 | 0.0 | 0.00 | 0.00 | 0.00 | 63 | 1018.4 |
| 20260504022204 | 9 | 0 | 0.0 | 0.0 | 0.00 | 0.00 | 0.00 | 62 | 1018.4 |
| 20260504022104 | 10 | 0 | 0.0 | 0.0 | 0.00 | 0.00 | 0.00 | 61 | 1018.3 |
| 20260504022003 | 10 | 0 | 0.0 | 0.0 | 0.00 | 0.00 | 0.00 | 61 | 1018.4 |
| 20260504021704 | 10 | 0 | 0.0 | 0.0 | 0.00 | 0.00 | 0.00 | 60 | 1018.3 |
| 20260504021304 | 10 | 0 | 0.0 | 0.0 | 0.00 | 0.00 | 0.00 | 60 | 1018.2 |
| 20260504021203 | 10 | 0 | 0.0 | 0.0 | 0.00 | 0.00 | 0.00 | 60 | 1018.2 |
| 20260504020903 | 10 | 0 | 0.0 | 0.0 | 0.00 | 0.00 | 0.00 | 60 | 1018.1 |
| 20260504020604 | 10 | 0 | 0.0 | 0.0 | 0.00 | 0.00 | 0.00 | 59 | 1018.2 |
| 20260504020504 | 10 | 0 | 0.0 | 0.0 | 0.00 | 0.00 | 0.00 | 59 | 1018.2 |
| 20260504020403 | 10 | 0 | 0.0 | 0.0 | 0.00 | 0.00 | 0.00 | 58 | 1018.1 |
| 20260504020303 | 10 | 0 | 0.0 | 0.0 | 0.00 | 0.00 | 0.00 | 58 | 1018.2 |
| 20260504020204 | 10 | 0 | 0.0 | 0.0 | 0.00 | 0.00 | 0.00 | 58 | 1018.1 |
| 20260504020104 | 10 | 0 | 0.0 | 0.0 | 0.00 | 0.00 | 0.00 | 59 | 1018.1 |
| 20260504015803 | 11 | 0 | 0.0 | 0.0 | 0.00 | 0.00 | 0.00 | 60 | 1018.1 |
| 20260504015704 | 11 | 0 | 0.0 | 0.0 | 0.00 | 0.00 | 0.00 | 59 | 1018.0 |
| 20260504015604 | 11 | 0 | 0.0 | 0.0 | 0.00 | 0.00 | 0.00 | 59 | 1018.0 |
| 20260504015304 | 11 | 0 | 0.0 | 0.0 | 0.00 | 0.00 | 0.00 | 58 | 1018.0 |
| 20260504015204 | 11 | 0 | 0.0 | 0.0 | 0.00 | 0.00 | 0.00 | 56 | 1017.9 |
| 20260504015003 | 11 | 0 | 0.0 | 0.0 | 0.00 | 0.00 | 0.00 | 57 | 1017.9 |
| 20260504014903 | 11 | 0 | 0.0 | 0.0 | 0.00 | 0.00 | 0.00 | 57 | 1018.0 |
| 20260504014704 | 11 | 0 | 0.0 | 0.0 | 0.00 | 0.00 | 0.00 | 57 | 1017.9 |
| 20260504014403 | 11 | 0 | 0.0 | 0.0 | 0.00 | 0.00 | 0.00 | 60 | 1017.9 |
| 20260504014304 | 11 | 0 | 0.0 | 0.0 | 0.00 | 0.00 | 0.00 | 59 | 1017.9 |
| 20260504013904 | 11 | 0 | 0.0 | 0.0 | 0.00 | 0.00 | 0.00 | 58 | 1018.0 |
| 20260504013804 | 11 | 0 | 0.0 | 0.0 | 0.00 | 0.00 | 0.00 | 58 | 1018.0 |
| 20260504013203 | 11 | 0 | 0.0 | 0.0 | 0.00 | 0.00 | 0.00 | 55 | 1017.8 |
| 20260504012903 | 11 | 0 | 0.0 | 0.0 | 0.00 | 0.00 | 0.00 | 56 | 1017.8 |
| 20260504012803 | 11 | 0 | 0.0 | 0.0 | 0.00 | 0.00 | 0.00 | 56 | 1017.8 |
| 20260504012704 | 11 | 0 | 0.0 | 0.0 | 0.00 | 0.00 | 0.00 | 56 | 1017.8 |
| 20260504012304 | 11 | 0 | 0.0 | 0.0 | 0.00 | 0.00 | 0.00 | 56 | 1017.9 |
| 20260504012204 | 11 | 0 | 0.0 | 0.0 | 0.00 | 0.00 | 0.00 | 56 | 1017.9 |
| 20260504012104 | 11 | 0 | 0.0 | 0.0 | 0.00 | 0.00 | 0.00 | 55 | 1017.9 |
| 20260504012004 | 11 | 0 | 0.0 | 0.0 | 0.00 | 0.00 | 0.00 | 58 | 1017.9 |
| 20260504011904 | 11 | 0 | 0.0 | 0.0 | 0.00 | 0.00 | 0.00 | 57 | 1017.8 |
| 20260504011403 | 11 | 0 | 0.0 | 0.0 | 0.00 | 0.00 | 0.00 | 54 | 1017.8 |
| 20260504011203 | 11 | 0 | 0.0 | 0.0 | 0.00 | 0.00 | 0.00 | 54 | 1017.7 |
| 20260504011103 | 11 | 0 | 0.0 | 0.0 | 0.00 | 0.00 | 0.00 | 55 | 1017.7 |
| 20260504010904 | 11 | 0 | 0.0 | 0.0 | 0.00 | 0.00 | 0.00 | 54 | 1017.7 |
| 20260504010803 | 12 | 0 | 0.0 | 0.0 | 0.00 | 0.00 | 0.00 | 54 | 1017.7 |
| 20260504010704 | 12 | 0 | 0.0 | 0.0 | 0.00 | 0.00 | 0.00 | 54 | 1017.7 |
| 20260504010604 | 12 | 0 | 0.0 | 0.0 | 0.00 | 0.00 | 0.00 | 53 | 1017.7 |
| 20260504010404 | 12 | 0 | 0.0 | 0.0 | 0.00 | 0.00 | 0.00 | 53 | 1017.6 |
| 20260504010304 | 12 | 0 | 0.0 | 0.0 | 0.00 | 0.00 | 0.00 | 53 | 1017.6 |
| 20260504010004 | 12 | 0 | 0.0 | 0.0 | 0.00 | 0.00 | 0.00 | 51 | 1017.5 |
| 20260504005704 | 12 | 0 | 0.0 | 0.0 | 0.00 | 0.00 | 0.00 | 53 | 1017.5 |
| 20260504005604 | 12 | 0 | 0.0 | 0.0 | 0.00 | 0.00 | 0.00 | 55 | 1017.5 |
| 20260504005104 | 12 | 0 | 0.0 | 0.0 | 0.00 | 0.00 | 0.00 | 55 | 1017.5 |
| 20260504005004 | 12 | 0 | 0.0 | 0.0 | 0.00 | 0.00 | 0.00 | 51 | 1017.5 |
| 20260504004904 | 12 | 0 | 0.0 | 0.0 | 0.00 | 0.00 | 0.00 | 51 | 1017.6 |
| 20260504004804 | 12 | 0 | 0.0 | 0.0 | 0.00 | 0.00 | 0.00 | 52 | 1017.5 |
| 20260504004603 | 12 | 0 | 0.0 | 0.0 | 0.00 | 0.00 | 0.00 | 51 | 1017.5 |
| 20260504004403 | 12 | 0 | 0.0 | 0.0 | 0.00 | 0.00 | 0.00 | 51 | 1017.5 |
| 20260504004204 | 12 | 0 | 0.0 | 0.0 | 0.00 | 0.00 | 0.00 | 52 | 1017.5 |
| 20260504004104 | 12 | 0 | 0.0 | 0.0 | 0.00 | 0.00 | 0.00 | 52 | 1017.4 |
| 20260504004004 | 12 | 0 | 0.0 | 0.0 | 0.00 | 0.00 | 0.00 | 52 | 1017.4 |
| 20260504003404 | 12 | 0 | 0.0 | 0.0 | 0.00 | 0.00 | 0.00 | 50 | 1017.3 |
| 20260504003303 | 12 | 258 | 0.0 | 1.6 | 0.00 | 0.00 | 0.00 | 51 | 1017.3 |
| 20260504003104 | 12 | 259 | 0.0 | 1.6 | 0.00 | 0.00 | 0.00 | 52 | 1017.3 |
| 20260504003004 | 13 | 259 | 0.0 | 1.6 | 0.00 | 0.00 | 0.00 | 50 | 1017.3 |
| 20260504002903 | 13 | 259 | 0.0 | 1.6 | 0.00 | 0.00 | 0.00 | 50 | 1017.3 |
| 20260504002604 | 13 | 258 | 1.6 | 4.8 | 0.00 | 0.00 | 0.00 | 50 | 1017.3 |
| 20260504002203 | 13 | 262 | 1.6 | 4.8 | 0.00 | 0.00 | 0.00 | 49 | 1017.3 |
| 20260504002104 | 13 | 270 | 1.6 | 9.7 | 0.00 | 0.00 | 0.00 | 48 | 1017.2 |
| 20260504002003 | 13 | 275 | 1.6 | 11.3 | 0.00 | 0.00 | 0.00 | 48 | 1017.3 |
| 20260504001903 | 13 | 277 | 1.6 | 11.3 | 0.00 | 0.00 | 0.00 | 48 | 1017.3 |
| 20260504001804 | 13 | 277 | 1.6 | 11.3 | 0.00 | 0.00 | 0.00 | 48 | 1017.2 |
| 20260504001703 | 13 | 278 | 1.6 | 11.3 | 0.00 | 0.00 | 0.00 | 49 | 1017.2 |
| 20260504001604 | 13 | 282 | 1.6 | 11.3 | 0.00 | 0.00 | 0.00 | 47 | 1017.2 |
| 20260504001504 | 13 | 283 | 1.6 | 11.3 | 0.00 | 0.00 | 0.00 | 48 | 1017.2 |
| 20260504001404 | 13 | 286 | 1.6 | 11.3 | 0.00 | 0.00 | 0.00 | 48 | 1017.2 |
| 20260504001303 | 13 | 288 | 1.6 | 11.3 | 0.00 | 0.00 | 0.00 | 45 | 1017.2 |
| 20260504001204 | 13 | 289 | 1.6 | 11.3 | 0.00 | 0.00 | 0.00 | 45 | 1017.2 |
| 20260504001104 | 14 | 290 | 1.6 | 11.3 | 0.00 | 0.00 | 0.00 | 45 | 1017.2 |
| 20260504000603 | 14 | 299 | 0.0 | 6.4 | 0.00 | 0.00 | 0.00 | 44 | 1017.2 |
| 20260504000504 | 14 | 307 | 0.0 | 6.4 | 0.00 | 0.00 | 0.00 | 44 | 1017.2 |
| 20260504000003 | 15 | 314 | 1.6 | 8.0 | 0.00 | 0.00 | 0.00 | 42 | 1017.1 |
| 20260503235704 | 15 | 298 | 1.6 | 8.0 | 0.00 | 0.00 | 0.00 | 41 | 1017.1 |
| 20260503235003 | 15 | 293 | 3.2 | 6.4 | 0.00 | 0.00 | 0.00 | 45 | 1017.2 |
| 20260503234904 | 15 | 294 | 3.2 | 6.4 | 0.00 | 0.00 | 0.00 | 41 | 1017.2 |
| 20260503234804 | 15 | 294 | 3.2 | 6.4 | 0.00 | 0.00 | 0.00 | 39 | 1017.2 |
| 20260503234704 | 15 | 298 | 3.2 | 11.3 | 0.00 | 0.00 | 0.00 | 41 | 1017.2 |
| 20260503234603 | 15 | 289 | 3.2 | 11.3 | 0.00 | 0.00 | 0.00 | 43 | 1017.3 |
| 20260503234504 | 15 | 288 | 4.8 | 11.3 | 0.00 | 0.00 | 0.00 | 43 | 1017.3 |
| 20260503234304 | 15 | 283 | 4.8 | 11.3 | 0.00 | 0.00 | 0.00 | 40 | 1017.2 |
| 20260503234204 | 15 | 284 | 4.8 | 11.3 | 0.00 | 0.00 | 0.00 | 44 | 1017.1 |
| 20260503234103 | 16 | 283 | 4.8 | 11.3 | 0.00 | 0.00 | 0.00 | 40 | 1017.2 |
| 20260503233904 | 16 | 285 | 4.8 | 11.3 | 0.00 | 0.00 | 0.00 | 43 | 1017.2 |
| 20260503233704 | 16 | 288 | 4.8 | 11.3 | 0.00 | 0.00 | 0.00 | 38 | 1017.1 |
| 20260503233604 | 16 | 293 | 4.8 | 11.3 | 0.00 | 0.00 | 0.00 | 37 | 1017.1 |
| 20260503233503 | 16 | 296 | 4.8 | 11.3 | 0.00 | 0.00 | 0.00 | 37 | 1017.1 |
| 20260503233204 | 16 | 300 | 3.2 | 11.3 | 0.00 | 0.00 | 0.00 | 39 | 1017.1 |
| 20260503233103 | 16 | 300 | 3.2 | 11.3 | 0.00 | 0.00 | 0.00 | 37 | 1017.1 |
| 20260503232803 | 16 | 301 | 3.2 | 11.3 | 0.00 | 0.00 | 0.00 | 43 | 1017.0 |
| 20260503232704 | 16 | 299 | 3.2 | 11.3 | 0.00 | 0.00 | 0.00 | 37 | 1017.0 |
| 20260503232404 | 16 | 294 | 3.2 | 11.3 | 0.00 | 0.00 | 0.00 | 38 | 1017.0 |
| 20260503232204 | 16 | 296 | 1.6 | 8.0 | 0.00 | 0.00 | 0.00 | 39 | 1017.1 |
| 20260503232103 | 16 | 297 | 1.6 | 8.0 | 0.00 | 0.00 | 0.00 | 41 | 1017.1 |
| 20260503232004 | 16 | 297 | 1.6 | 8.0 | 0.00 | 0.00 | 0.00 | 37 | 1017.1 |
| 20260503231904 | 16 | 296 | 1.6 | 8.0 | 0.00 | 0.00 | 0.00 | 39 | 1017.1 |
| 20260503231703 | 16 | 292 | 1.6 | 8.0 | 0.00 | 0.00 | 0.00 | 47 | 1017.2 |
| 20260503231504 | 17 | 291 | 1.6 | 8.0 | 0.00 | 0.00 | 0.00 | 39 | 1017.2 |
| 20260503231404 | 17 | 291 | 1.6 | 8.0 | 0.00 | 0.00 | 0.00 | 38 | 1017.1 |
| 20260503231304 | 17 | 291 | 1.6 | 6.4 | 0.00 | 0.00 | 0.00 | 39 | 1017.1 |
| 20260503231203 | 17 | 292 | 1.6 | 6.4 | 0.00 | 0.00 | 0.00 | 38 | 1017.1 |
| 20260503231104 | 17 | 292 | 1.6 | 6.4 | 0.00 | 0.00 | 0.00 | 42 | 1017.0 |
| 20260503230204 | 17 | 310 | 3.2 | 14.5 | 0.00 | 0.00 | 0.00 | 42 | 1017.1 |
| 20260503230004 | 17 | 298 | 3.2 | 14.5 | 0.00 | 0.00 | 0.00 | 46 | 1017.1 |
| 20260503225904 | 17 | 295 | 3.2 | 14.5 | 0.00 | 0.00 | 0.00 | 39 | 1017.1 |
| 20260503225604 | 17 | 298 | 3.2 | 14.5 | 0.00 | 0.00 | 0.00 | 38 | 1017.1 |
| 20260503225503 | 17 | 296 | 3.2 | 14.5 | 0.00 | 0.00 | 0.00 | 41 | 1017.1 |
| 20260503225204 | 17 | 286 | 3.2 | 11.3 | 0.00 | 0.00 | 0.00 | 39 | 1017.1 |
| 20260503224803 | 17 | 308 | 4.8 | 11.3 | 0.00 | 0.00 | 0.00 | 47 | 1017.1 |
| 20260503224603 | 17 | 303 | 4.8 | 12.9 | 0.00 | 0.00 | 0.00 | 37 | 1017.1 |
| 20260503224503 | 17 | 306 | 4.8 | 12.9 | 0.00 | 0.00 | 0.00 | 37 | 1017.1 |
| 20260503224404 | 17 | 306 | 4.8 | 12.9 | 0.00 | 0.00 | 0.00 | 38 | 1017.1 |
| 20260503224303 | 17 | 307 | 4.8 | 14.5 | 0.00 | 0.00 | 0.00 | 42 | 1017.0 |
| 20260503224103 | 17 | 302 | 3.2 | 14.5 | 0.00 | 0.00 | 0.00 | 38 | 1017.1 |
| 20260503224003 | 17 | 298 | 3.2 | 14.5 | 0.00 | 0.00 | 0.00 | 41 | 1017.1 |
| 20260503223803 | 18 | 292 | 3.2 | 14.5 | 0.00 | 0.00 | 0.00 | 38 | 1017.0 |
| 20260503223503 | 18 | 293 | 3.2 | 14.5 | 0.00 | 0.00 | 0.00 | 37 | 1017.0 |
| 20260503223403 | 18 | 295 | 3.2 | 14.5 | 0.00 | 0.00 | 0.00 | 35 | 1017.0 |
| 20260503223304 | 18 | 295 | 3.2 | 11.3 | 0.00 | 0.00 | 0.00 | 35 | 1017.0 |
| 20260503223203 | 18 | 297 | 3.2 | 11.3 | 0.00 | 0.00 | 0.00 | 35 | 1017.0 |
| 20260503223104 | 18 | 299 | 3.2 | 11.3 | 0.00 | 0.00 | 0.00 | 34 | 1017.0 |
| 20260503222903 | 18 | 298 | 3.2 | 11.3 | 0.00 | 0.00 | 0.00 | 39 | 1017.0 |
| 20260503222804 | 18 | 303 | 3.2 | 11.3 | 0.00 | 0.00 | 0.00 | 37 | 1017.0 |
| 20260503222504 | 18 | 303 | 3.2 | 11.3 | 0.00 | 0.00 | 0.00 | 37 | 1017.0 |
| 20260503222404 | 18 | 298 | 3.2 | 11.3 | 0.00 | 0.00 | 0.00 | 39 | 1017.0 |
| 20260503222304 | 18 | 299 | 3.2 | 9.7 | 0.00 | 0.00 | 0.00 | 37 | 1017.0 |
| 20260503222003 | 18 | 303 | 4.8 | 9.7 | 0.00 | 0.00 | 0.00 | 42 | 1017.1 |
| 20260503221904 | 17 | 305 | 4.8 | 9.7 | 0.00 | 0.00 | 0.00 | 35 | 1017.0 |
| 20260503221704 | 18 | 312 | 4.8 | 11.3 | 0.00 | 0.00 | 0.00 | 38 | 1017.0 |
| 20260503221503 | 18 | 320 | 4.8 | 12.9 | 0.00 | 0.00 | 0.00 | 39 | 1017.0 |
| 20260503221103 | 17 | 316 | 6.4 | 16.1 | 0.00 | 0.00 | 0.00 | 40 | 1017.0 |
| 20260503220903 | 17 | 310 | 6.4 | 16.1 | 0.00 | 0.00 | 0.00 | 33 | 1017.0 |
| 20260503220603 | 18 | 301 | 6.4 | 16.1 | 0.00 | 0.00 | 0.00 | 36 | 1017.2 |
| 20260503220503 | 18 | 303 | 6.4 | 20.9 | 0.00 | 0.00 | 0.00 | 34 | 1017.2 |
| 20260503220204 | 18 | 307 | 6.4 | 20.9 | 0.00 | 0.00 | 0.00 | 37 | 1017.2 |
| 20260503220004 | 18 | 310 | 6.4 | 20.9 | 0.00 | 0.00 | 0.00 | 34 | 1017.2 |
| 20260503215803 | 18 | 315 | 6.4 | 20.9 | 0.00 | 0.00 | 0.00 | 37 | 1017.3 |
| 20260503215603 | 18 | 321 | 6.4 | 20.9 | 0.00 | 0.00 | 0.00 | 32 | 1017.2 |
| 20260503215404 | 18 | 324 | 6.4 | 14.5 | 0.00 | 0.00 | 0.00 | 34 | 1017.2 |
| 20260503215304 | 18 | 327 | 6.4 | 14.5 | 0.00 | 0.00 | 0.00 | 36 | 1017.3 |
| 20260503215104 | 17 | 332 | 6.4 | 14.5 | 0.00 | 0.00 | 0.00 | 33 | 1017.2 |
| 20260503214903 | 17 | 332 | 6.4 | 14.5 | 0.00 | 0.00 | 0.00 | 35 | 1017.3 |
| 20260503214403 | 18 | 322 | 6.4 | 16.1 | 0.00 | 0.00 | 0.00 | 32 | 1017.3 |
| 20260503214303 | 18 | 320 | 6.4 | 16.1 | 0.00 | 0.00 | 0.00 | 30 | 1017.3 |
| 20260503214204 | 18 | 320 | 6.4 | 16.1 | 0.00 | 0.00 | 0.00 | 32 | 1017.3 |
| 20260503213903 | 18 | 320 | 8.0 | 16.1 | 0.00 | 0.00 | 0.00 | 33 | 1017.3 |
| 20260503213803 | 18 | 317 | 8.0 | 16.1 | 0.00 | 0.00 | 0.00 | 35 | 1017.3 |
| 20260503213704 | 18 | 314 | 8.0 | 16.1 | 0.00 | 0.00 | 0.00 | 36 | 1017.3 |
| 20260503213603 | 18 | 318 | 8.0 | 16.1 | 0.00 | 0.00 | 0.00 | 33 | 1017.3 |
| 20260503213404 | 17 | 312 | 8.0 | 24.1 | 0.00 | 0.00 | 0.00 | 34 | 1017.3 |
| 20260503213204 | 18 | 313 | 8.0 | 24.1 | 0.00 | 0.00 | 0.00 | 31 | 1017.3 |
| 20260503212904 | 18 | 312 | 8.0 | 24.1 | 0.00 | 0.00 | 0.00 | 33 | 1017.3 |
| 20260503212704 | 18 | 317 | 8.0 | 24.1 | 0.00 | 0.00 | 0.00 | 30 | 1017.3 |
| 20260503212003 | 18 | 309 | 8.0 | 20.9 | 0.00 | 0.00 | 0.00 | 32 | 1017.3 |
| 20260503211903 | 18 | 310 | 9.7 | 20.9 | 0.00 | 0.00 | 0.00 | 34 | 1017.4 |
| 20260503211804 | 18 | 306 | 9.7 | 20.9 | 0.00 | 0.00 | 0.00 | 33 | 1017.4 |
| 20260503211703 | 18 | 306 | 9.7 | 20.9 | 0.00 | 0.00 | 0.00 | 35 | 1017.4 |
| 20260503211604 | 18 | 306 | 9.7 | 20.9 | 0.00 | 0.00 | 0.00 | 33 | 1017.4 |
| 20260503211304 | 18 | 311 | 9.7 | 20.9 | 0.00 | 0.00 | 0.00 | 33 | 1017.5 |
| 20260503211003 | 18 | 302 | 9.7 | 19.3 | 0.00 | 0.00 | 0.00 | 34 | 1017.5 |
| 20260503210704 | 18 | 294 | 9.7 | 20.9 | 0.00 | 0.00 | 0.00 | 32 | 1017.5 |
| 20260503210503 | 18 | 292 | 8.0 | 20.9 | 0.00 | 0.00 | 0.00 | 34 | 1017.6 |
| 20260503210404 | 18 | 290 | 8.0 | 20.9 | 0.00 | 0.00 | 0.00 | 31 | 1017.6 |
| 20260503210204 | 18 | 295 | 6.4 | 20.9 | 0.00 | 0.00 | 0.00 | 31 | 1017.6 |
| 20260503210103 | 18 | 297 | 6.4 | 20.9 | 0.00 | 0.00 | 0.00 | 30 | 1017.6 |
| 20260503205904 | 18 | 305 | 6.4 | 20.9 | 0.00 | 0.00 | 0.00 | 31 | 1017.6 |
| 20260503205604 | 18 | 317 | 6.4 | 17.7 | 0.00 | 0.00 | 0.00 | 30 | 1017.7 |
| 20260503205503 | 18 | 316 | 6.4 | 17.7 | 0.00 | 0.00 | 0.00 | 30 | 1017.6 |
| 20260503205004 | 18 | 313 | 8.0 | 17.7 | 0.00 | 0.00 | 0.00 | 32 | 1017.7 |
| 20260503204903 | 18 | 315 | 8.0 | 17.7 | 0.00 | 0.00 | 0.00 | 34 | 1017.8 |
| 20260503204704 | 18 | 316 | 8.0 | 17.7 | 0.00 | 0.00 | 0.00 | 34 | 1017.7 |
| 20260503204503 | 18 | 316 | 8.0 | 17.7 | 0.00 | 0.00 | 0.00 | 29 | 1017.7 |
| 20260503204403 | 18 | 316 | 8.0 | 17.7 | 0.00 | 0.00 | 0.00 | 35 | 1017.8 |
| 20260503204303 | 17 | 316 | 6.4 | 17.7 | 0.00 | 0.00 | 0.00 | 32 | 1017.7 |
| 20260503204203 | 17 | 317 | 6.4 | 17.7 | 0.00 | 0.00 | 0.00 | 31 | 1017.6 |
| 20260503204103 | 17 | 319 | 6.4 | 17.7 | 0.00 | 0.00 | 0.00 | 31 | 1017.7 |
| 20260503204004 | 17 | 317 | 6.4 | 17.7 | 0.00 | 0.00 | 0.00 | 29 | 1017.7 |
| 20260503203704 | 18 | 313 | 4.8 | 17.7 | 0.00 | 0.00 | 0.00 | 29 | 1017.7 |
| 20260503203303 | 18 | 305 | 4.8 | 12.9 | 0.00 | 0.00 | 0.00 | 34 | 1017.9 |
| 20260503203203 | 18 | 303 | 4.8 | 12.9 | 0.00 | 0.00 | 0.00 | 33 | 1017.9 |
| 20260503202903 | 18 | 279 | 4.8 | 12.9 | 0.00 | 0.00 | 0.00 | 28 | 1017.8 |
| 20260503202704 | 18 | 267 | 4.8 | 14.5 | 0.00 | 0.00 | 0.00 | 31 | 1017.8 |
| 20260503202604 | 18 | 266 | 4.8 | 14.5 | 0.00 | 0.00 | 0.00 | 34 | 1017.9 |
| 20260503202404 | 18 | 260 | 4.8 | 14.5 | 0.00 | 0.00 | 0.00 | 36 | 1018.0 |
| 20260503202304 | 18 | 260 | 4.8 | 14.5 | 0.00 | 0.00 | 0.00 | 36 | 1018.0 |
| 20260503202203 | 18 | 260 | 4.8 | 14.5 | 0.00 | 0.00 | 0.00 | 30 | 1018.0 |
| 20260503202104 | 18 | 266 | 4.8 | 14.5 | 0.00 | 0.00 | 0.00 | 31 | 1018.0 |
| 20260503201904 | 18 | 280 | 4.8 | 14.5 | 0.00 | 0.00 | 0.00 | 31 | 1018.1 |
| 20260503201803 | 18 | 286 | 3.2 | 16.1 | 0.00 | 0.00 | 0.00 | 32 | 1018.1 |
| 20260503201703 | 18 | 286 | 3.2 | 16.1 | 0.00 | 0.00 | 0.00 | 28 | 1018.0 |
| 20260503201503 | 18 | 270 | 4.8 | 16.1 | 0.00 | 0.00 | 0.00 | 35 | 1018.1 |
| 20260503201404 | 18 | 270 | 4.8 | 16.1 | 0.00 | 0.00 | 0.00 | 35 | 1018.1 |
| 20260503201103 | 18 | 264 | 4.8 | 16.1 | 0.00 | 0.00 | 0.00 | 38 | 1018.1 |
| 20260503201004 | 18 | 263 | 4.8 | 16.1 | 0.00 | 0.00 | 0.00 | 27 | 1018.1 |
| 20260503200903 | 19 | 269 | 4.8 | 16.1 | 0.00 | 0.00 | 0.00 | 33 | 1018.2 |
| 20260503200604 | 18 | 272 | 4.8 | 16.1 | 0.00 | 0.00 | 0.00 | 36 | 1018.3 |
| 20260503200403 | 18 | 283 | 4.8 | 16.1 | 0.00 | 0.00 | 0.00 | 34 | 1018.2 |
| 20260503200204 | 18 | 287 | 4.8 | 16.1 | 0.00 | 0.00 | 0.00 | 44 | 1018.3 |
| 20260503200004 | 18 | 292 | 4.8 | 16.1 | 0.00 | 0.00 | 0.00 | 34 | 1018.2 |
| 20260503195903 | 18 | 294 | 4.8 | 16.1 | 0.00 | 0.00 | 0.00 | 32 | 1018.3 |
| 20260503195803 | 18 | 293 | 3.2 | 16.1 | 0.00 | 0.00 | 0.00 | 36 | 1018.3 |
| 20260503195704 | 18 | 296 | 3.2 | 16.1 | 0.00 | 0.00 | 0.00 | 40 | 1018.3 |
| 20260503195604 | 18 | 299 | 3.2 | 16.1 | 0.00 | 0.00 | 0.00 | 44 | 1018.3 |
| 20260503195503 | 18 | 300 | 3.2 | 16.1 | 0.00 | 0.00 | 0.00 | 38 | 1018.2 |
| 20260503195304 | 18 | 294 | 3.2 | 16.1 | 0.00 | 0.00 | 0.00 | 41 | 1018.4 |
| 20260503195104 | 18 | 295 | 3.2 | 16.1 | 0.00 | 0.00 | 0.00 | 39 | 1018.4 |
| 20260503195005 | 18 | 287 | 3.2 | 16.1 | 0.00 | 0.00 | 0.00 | 41 | 1018.5 |
| 20260503194903 | 18 | 277 | 3.2 | 16.1 | 0.00 | 0.00 | 0.00 | 40 | 1018.5 |
| 20260503194804 | 18 | 276 | 3.2 | 12.9 | 0.00 | 0.00 | 0.00 | 41 | 1018.5 |
| 20260503194303 | 18 | 293 | 4.8 | 17.7 | 0.00 | 0.00 | 0.00 | 49 | 1018.7 |
| 20260503194203 | 18 | 294 | 4.8 | 17.7 | 0.00 | 0.00 | 0.00 | 48 | 1018.7 |
| 20260503194104 | 18 | 294 | 3.2 | 17.7 | 0.00 | 0.00 | 0.00 | 44 | 1018.7 |
| 20260503194004 | 18 | 292 | 3.2 | 17.7 | 0.00 | 0.00 | 0.00 | 39 | 1018.6 |
| 20260503193804 | 17 | 285 | 3.2 | 17.7 | 0.00 | 0.00 | 0.00 | 34 | 1018.6 |
| 20260503193704 | 18 | 284 | 3.2 | 17.7 | 0.00 | 0.00 | 0.00 | 35 | 1018.7 |
| 20260503193503 | 18 | 288 | 3.2 | 17.7 | 0.00 | 0.00 | 0.00 | 32 | 1018.6 |
| 20260503193404 | 18 | 287 | 3.2 | 17.7 | 0.00 | 0.00 | 0.00 | 36 | 1018.8 |
| 20260503193204 | 18 | 263 | 3.2 | 12.9 | 0.00 | 0.00 | 0.00 | 43 | 1018.8 |
| 20260503193103 | 18 | 260 | 3.2 | 12.9 | 0.00 | 0.00 | 0.00 | 39 | 1018.7 |
| 20260503192903 | 18 | 249 | 3.2 | 12.9 | 0.00 | 0.00 | 0.00 | 44 | 1018.8 |
| 20260503192803 | 18 | 219 | 1.6 | 12.9 | 0.00 | 0.00 | 0.00 | 38 | 1018.7 |
| 20260503192704 | 18 | 214 | 1.6 | 12.9 | 0.00 | 0.00 | 0.00 | 37 | 1018.7 |
| 20260503192604 | 18 | 186 | 1.6 | 12.9 | 0.00 | 0.00 | 0.00 | 43 | 1018.8 |
| 20260503192503 | 18 | 186 | 1.6 | 12.9 | 0.00 | 0.00 | 0.00 | 40 | 1018.8 |
| 20260503192104 | 18 | 297 | 1.6 | 12.9 | 0.00 | 0.00 | 0.00 | 37 | 1018.8 |
| 20260503192004 | 18 | 298 | 1.6 | 12.9 | 0.00 | 0.00 | 0.00 | 35 | 1018.8 |
| 20260503191803 | 18 | 300 | 1.6 | 12.9 | 0.00 | 0.00 | 0.00 | 39 | 1018.9 |
| 20260503191603 | 18 | 300 | 1.6 | 12.9 | 0.00 | 0.00 | 0.00 | 38 | 1018.9 |
| 20260503191104 | 18 | 306 | 3.2 | 11.3 | 0.00 | 0.00 | 0.00 | 37 | 1019.0 |
| 20260503190903 | 17 | 301 | 3.2 | 12.9 | 0.00 | 0.00 | 0.00 | 43 | 1019.1 |
| 20260503190803 | 17 | 303 | 3.2 | 12.9 | 0.00 | 0.00 | 0.00 | 43 | 1019.1 |
| 20260503190704 | 17 | 305 | 3.2 | 12.9 | 0.00 | 0.00 | 0.00 | 51 | 1019.2 |
| 20260503190604 | 17 | 297 | 3.2 | 14.5 | 0.00 | 0.00 | 0.00 | 46 | 1019.1 |
| 20260503190504 | 17 | 295 | 3.2 | 14.5 | 0.00 | 0.00 | 0.00 | 48 | 1019.2 |
| 20260503190204 | 17 | 285 | 3.2 | 14.5 | 0.00 | 0.00 | 0.00 | 42 | 1019.0 |
| 20260503190104 | 17 | 283 | 4.8 | 14.5 | 0.00 | 0.00 | 0.00 | 45 | 1019.1 |
| 20260503185804 | 17 | 268 | 4.8 | 14.5 | 0.00 | 0.00 | 0.00 | 40 | 1019.1 |
| 20260503185604 | 17 | 261 | 3.2 | 11.3 | 0.00 | 0.00 | 0.00 | 47 | 1019.0 |
| 20260503185504 | 17 | 260 | 3.2 | 11.3 | 0.00 | 0.00 | 0.00 | 40 | 1019.1 |
| 20260503185403 | 17 | 260 | 3.2 | 11.3 | 0.00 | 0.00 | 0.00 | 39 | 1019.1 |
| 20260503185204 | 17 | 270 | 3.2 | 12.9 | 0.00 | 0.00 | 0.00 | 46 | 1019.2 |
| 20260503184903 | 17 | 274 | 3.2 | 12.9 | 0.00 | 0.00 | 0.00 | 46 | 1019.1 |
| 20260503184803 | 17 | 281 | 3.2 | 12.9 | 0.00 | 0.00 | 0.00 | 44 | 1019.1 |
| 20260503184504 | 16 | 286 | 3.2 | 12.9 | 0.00 | 0.00 | 0.00 | 51 | 1019.2 |
| 20260503184404 | 16 | 285 | 3.2 | 12.9 | 0.00 | 0.00 | 0.00 | 45 | 1019.2 |
| 20260503184304 | 16 | 289 | 3.2 | 12.9 | 0.00 | 0.00 | 0.00 | 44 | 1019.2 |
| 20260503184004 | 16 | 261 | 4.8 | 11.3 | 0.00 | 0.00 | 0.00 | 49 | 1019.2 |
| 20260503183904 | 16 | 211 | 4.8 | 14.5 | 0.00 | 0.00 | 0.00 | 45 | 1019.2 |
| 20260503183804 | 17 | 212 | 4.8 | 14.5 | 0.00 | 0.00 | 0.00 | 44 | 1019.2 |
| 20260503183704 | 17 | 219 | 4.8 | 14.5 | 0.00 | 0.00 | 0.00 | 48 | 1019.2 |
| 20260503183604 | 17 | 230 | 4.8 | 14.5 | 0.00 | 0.00 | 0.00 | 41 | 1019.2 |
| 20260503183404 | 17 | 230 | 3.2 | 14.5 | 0.00 | 0.00 | 0.00 | 49 | 1019.2 |
| 20260503183004 | 16 | 242 | 3.2 | 14.5 | 0.00 | 0.00 | 0.00 | 48 | 1019.2 |
| 20260503182704 | 16 | 243 | 3.2 | 12.9 | 0.00 | 0.00 | 0.00 | 46 | 1019.1 |
| 20260503182603 | 16 | 224 | 3.2 | 12.9 | 0.00 | 0.00 | 0.00 | 47 | 1019.2 |
| 20260503182504 | 16 | 214 | 3.2 | 9.7 | 0.00 | 0.00 | 0.00 | 48 | 1019.3 |
| 20260503182403 | 16 | 213 | 4.8 | 9.7 | 0.00 | 0.00 | 0.00 | 52 | 1019.3 |
| 20260503182305 | 16 | 219 | 4.8 | 14.5 | 0.00 | 0.00 | 0.00 | 45 | 1019.2 |
| 20260503182005 | 16 | 219 | 4.8 | 14.5 | 0.00 | 0.00 | 0.00 | 47 | 1019.3 |
| 20260503181204 | 16 | 279 | 3.2 | 17.7 | 0.00 | 0.00 | 0.00 | 49 | 1019.5 |
| 20260503181004 | 16 | 301 | 3.2 | 17.7 | 0.00 | 0.00 | 0.00 | 50 | 1019.4 |
| 20260503180903 | 16 | 320 | 3.2 | 12.9 | 0.00 | 0.00 | 0.00 | 48 | 1019.5 |
| 20260503180704 | 16 | 299 | 4.8 | 12.9 | 0.00 | 0.00 | 0.00 | 50 | 1019.4 |
| 20260503180603 | 16 | 290 | 4.8 | 14.5 | 0.00 | 0.00 | 0.00 | 53 | 1019.5 |
| 20260503180203 | 16 | 272 | 4.8 | 14.5 | 0.00 | 0.00 | 0.00 | 50 | 1019.5 |
| 20260503175903 | 15 | 277 | 4.8 | 19.3 | 0.00 | 0.00 | 0.00 | 52 | 1019.5 |
| 20260503175704 | 15 | 283 | 4.8 | 19.3 | 0.00 | 0.00 | 0.00 | 48 | 1019.5 |
| 20260503175503 | 15 | 285 | 4.8 | 19.3 | 0.00 | 0.00 | 0.00 | 51 | 1019.5 |
| 20260503175204 | 15 | 288 | 3.2 | 19.3 | 0.00 | 0.00 | 0.00 | 51 | 1019.5 |
| 20260503175103 | 15 | 287 | 3.2 | 19.3 | 0.00 | 0.00 | 0.00 | 49 | 1019.5 |
| 20260503174904 | 16 | 281 | 3.2 | 19.3 | 0.00 | 0.00 | 0.00 | 49 | 1019.4 |
| 20260503174804 | 16 | 278 | 3.2 | 19.3 | 0.00 | 0.00 | 0.00 | 53 | 1019.4 |
| 20260503174503 | 16 | 271 | 3.2 | 12.9 | 0.00 | 0.00 | 0.00 | 53 | 1019.5 |
| 20260503174403 | 15 | 272 | 3.2 | 11.3 | 0.00 | 0.00 | 0.00 | 56 | 1019.5 |
| 20260503174103 | 15 | 295 | 3.2 | 11.3 | 0.00 | 0.00 | 0.00 | 52 | 1019.5 |
| 20260503173903 | 15 | 300 | 3.2 | 11.3 | 0.00 | 0.00 | 0.00 | 52 | 1019.5 |
| 20260503173703 | 15 | 322 | 3.2 | 11.3 | 0.00 | 0.00 | 0.00 | 49 | 1019.6 |
| 20260503173604 | 15 | 314 | 3.2 | 11.3 | 0.00 | 0.00 | 0.00 | 49 | 1019.6 |
| 20260503173504 | 15 | 291 | 3.2 | 11.3 | 0.00 | 0.00 | 0.00 | 51 | 1019.7 |
| 20260503173303 | 15 | 273 | 3.2 | 6.4 | 0.00 | 0.00 | 0.00 | 54 | 1019.7 |
| 20260503173104 | 16 | 268 | 4.8 | 9.7 | 0.00 | 0.00 | 0.00 | 58 | 1019.9 |
| 20260503173003 | 16 | 274 | 4.8 | 9.7 | 0.00 | 0.00 | 0.00 | 59 | 1019.9 |
| 20260503172803 | 15 | 283 | 4.8 | 12.9 | 0.00 | 0.00 | 0.00 | 59 | 1019.9 |
| 20260503172504 | 15 | 290 | 4.8 | 20.9 | 0.00 | 0.00 | 0.00 | 53 | 1019.8 |
| 20260503172404 | 15 | 292 | 4.8 | 20.9 | 0.00 | 0.00 | 0.00 | 55 | 1019.9 |
| 20260503172103 | 15 | 301 | 4.8 | 20.9 | 0.00 | 0.00 | 0.00 | 50 | 1019.9 |
| 20260503171903 | 15 | 296 | 4.8 | 20.9 | 0.00 | 0.00 | 0.00 | 55 | 1019.9 |
| 20260503171604 | 15 | 296 | 3.2 | 17.7 | 0.00 | 0.00 | 0.00 | 52 | 1019.9 |
| 20260503171503 | 15 | 293 | 3.2 | 17.7 | 0.00 | 0.00 | 0.00 | 52 | 1020.0 |
| 20260503171203 | 15 | 292 | 3.2 | 17.7 | 0.00 | 0.00 | 0.00 | 56 | 1019.9 |
| 20260503171104 | 15 | 292 | 3.2 | 17.7 | 0.00 | 0.00 | 0.00 | 53 | 1020.0 |
| 20260503171004 | 15 | 290 | 3.2 | 14.5 | 0.00 | 0.00 | 0.00 | 52 | 1020.0 |
| 20260503170804 | 15 | 301 | 3.2 | 14.5 | 0.00 | 0.00 | 0.00 | 50 | 1020.0 |
| 20260503170703 | 15 | 297 | 3.2 | 14.5 | 0.00 | 0.00 | 0.00 | 51 | 1020.1 |
| 20260503170604 | 15 | 304 | 3.2 | 14.5 | 0.00 | 0.00 | 0.00 | 53 | 1020.0 |
| 20260503170503 | 15 | 317 | 3.2 | 14.5 | 0.00 | 0.00 | 0.00 | 53 | 1020.0 |
| 20260503170403 | 15 | 4 | 3.2 | 8.0 | 0.00 | 0.00 | 0.00 | 59 | 1020.1 |
| 20260503170303 | 15 | 32 | 3.2 | 8.0 | 0.00 | 0.00 | 0.00 | 56 | 1020.1 |
| 20260503160203 | 13 | 97 | 3.2 | 11.3 | 0.00 | 0.00 | 0.00 | 61 | 1020.4 |
| 20260503150803 | 12 | 227 | 1.6 | 11.3 | 0.00 | 0.00 | 0.00 | 63 | 1020.7 |
| 20260503150704 | 12 | 230 | 1.6 | 11.3 | 0.00 | 0.00 | 0.00 | 64 | 1020.7 |
| 20260503150404 | 12 | 260 | 3.2 | 14.5 | 0.00 | 0.00 | 0.00 | 64 | 1020.6 |
| 20260503140104 | 10 | 270 | 0.0 | 4.8 | 0.00 | 0.00 | 0.00 | 66 | 1020.5 |
| 20260503131304 | 7 | 0 | 0.0 | 0.0 | 0.00 | 0.00 | 0.00 | 82 | 1020.6 |
| 20260503131203 | 7 | 0 | 0.0 | 0.0 | 0.00 | 0.00 | 0.00 | 84 | 1020.6 |
| 20260503130904 | 6 | 0 | 0.0 | 0.0 | 0.00 | 0.00 | 0.00 | 84 | 1020.6 |
| 20260503130703 | 6 | 0 | 0.0 | 0.0 | 0.00 | 0.00 | 0.00 | 84 | 1020.6 |
| 20260503130304 | 6 | 0 | 0.0 | 0.0 | 0.00 | 0.00 | 0.00 | 85 | 1020.5 |
| 20260503130204 | 6 | 0 | 0.0 | 0.0 | 0.00 | 0.00 | 0.00 | 85 | 1020.5 |
| 20260503110803 | 3 | 0 | 0.0 | 0.0 | 0.00 | 0.00 | 0.00 | 90 | 1019.2 |
| 20260503110704 | 3 | 0 | 0.0 | 0.0 | 0.00 | 0.00 | 0.00 | 89 | 1019.2 |
| 20260503110603 | 3 | 0 | 0.0 | 0.0 | 0.00 | 0.00 | 0.00 | 90 | 1019.2 |
| 20260503110504 | 3 | 0 | 0.0 | 0.0 | 0.00 | 0.00 | 0.00 | 90 | 1019.1 |
| 20260503100204 | 3 | 0 | 0.0 | 0.0 | 0.00 | 0.00 | 0.00 | 88 | 1018.5 |
| 20260503090405 | 3 | 0 | 0.0 | 0.0 | 0.00 | 0.00 | 0.00 | 87 | 1018.1 |
| 20260503090105 | 3 | 0 | 0.0 | 0.0 | 0.00 | 0.00 | 0.00 | 87 | 1018.1 |
| 20260503081104 | 4 | 0 | 0.0 | 0.0 | 0.00 | 0.00 | 0.00 | 86 | 1017.5 |
| 20260503080904 | 4 | 0 | 0.0 | 0.0 | 0.00 | 0.00 | 0.00 | 86 | 1017.5 |
| 20260503080705 | 4 | 0 | 0.0 | 0.0 | 0.00 | 0.00 | 0.00 | 86 | 1017.5 |
| 20260503080604 | 4 | 0 | 0.0 | 0.0 | 0.00 | 0.00 | 0.00 | 86 | 1017.5 |
| 20260503080505 | 4 | 0 | 0.0 | 0.0 | 0.00 | 0.00 | 0.00 | 86 | 1017.5 |
| 20260503080405 | 4 | 0 | 0.0 | 0.0 | 0.00 | 0.00 | 0.00 | 86 | 1017.5 |
| 20260503080305 | 4 | 0 | 0.0 | 0.0 | 0.00 | 0.00 | 0.00 | 86 | 1017.5 |
| 20260503072904 | 5 | 0 | 0.0 | 0.0 | 0.00 | 0.00 | 0.00 | 83 | 1017.5 |
| 20260503072805 | 5 | 0 | 0.0 | 0.0 | 0.00 | 0.00 | 0.00 | 83 | 1017.5 |
| 20260503072105 | 5 | 0 | 0.0 | 0.0 | 0.00 | 0.00 | 0.00 | 81 | 1017.3 |
| 20260503072004 | 5 | 0 | 0.0 | 0.0 | 0.00 | 0.00 | 0.00 | 81 | 1017.3 |
| 20260503071604 | 5 | 0 | 0.0 | 0.0 | 0.00 | 0.00 | 0.00 | 84 | 1017.3 |
| 20260503071304 | 5 | 0 | 0.0 | 0.0 | 0.00 | 0.00 | 0.00 | 83 | 1017.2 |
| 20260503071204 | 5 | 0 | 0.0 | 0.0 | 0.00 | 0.00 | 0.00 | 84 | 1017.2 |
| 20260503071104 | 5 | 0 | 0.0 | 0.0 | 0.00 | 0.00 | 0.00 | 84 | 1017.2 |
| 20260503070805 | 5 | 0 | 0.0 | 0.0 | 0.00 | 0.00 | 0.00 | 85 | 1017.1 |
| 20260503070704 | 5 | 0 | 0.0 | 0.0 | 0.00 | 0.00 | 0.00 | 84 | 1017.1 |
| 20260503070204 | 5 | 0 | 0.0 | 0.0 | 0.00 | 0.00 | 0.00 | 83 | 1017.1 |
| 20260503060205 | 6 | 0 | 0.0 | 0.0 | 0.00 | 0.00 | 0.00 | 77 | 1017.1 |
| 20260503055104 | 6 | 0 | 0.0 | 0.0 | 0.00 | 0.00 | 0.00 | 76 | 1017.1 |
| 20260503054904 | 6 | 0 | 0.0 | 0.0 | 0.00 | 0.00 | 0.00 | 76 | 1017.1 |
| 20260503054804 | 6 | 0 | 0.0 | 0.0 | 0.00 | 0.00 | 0.00 | 77 | 1017.1 |
| 20260503054605 | 6 | 0 | 0.0 | 0.0 | 0.00 | 0.00 | 0.00 | 76 | 1017.1 |
| 20260503054404 | 6 | 0 | 0.0 | 0.0 | 0.00 | 0.00 | 0.00 | 77 | 1017.2 |
| 20260503054304 | 6 | 0 | 0.0 | 0.0 | 0.00 | 0.00 | 0.00 | 76 | 1017.1 |
| 20260503053905 | 6 | 0 | 0.0 | 0.0 | 0.00 | 0.00 | 0.00 | 74 | 1017.1 |
| 20260503053804 | 6 | 0 | 0.0 | 0.0 | 0.00 | 0.00 | 0.00 | 74 | 1017.1 |
| 20260503053705 | 6 | 0 | 0.0 | 0.0 | 0.00 | 0.00 | 0.00 | 74 | 1017.2 |
| 20260503053504 | 7 | 0 | 0.0 | 0.0 | 0.00 | 0.00 | 0.00 | 73 | 1017.1 |
| 20260503053405 | 7 | 0 | 0.0 | 0.0 | 0.00 | 0.00 | 0.00 | 73 | 1017.1 |
| 20260503053204 | 7 | 0 | 0.0 | 0.0 | 0.00 | 0.00 | 0.00 | 73 | 1017.1 |
| 20260503053105 | 7 | 0 | 0.0 | 0.0 | 0.00 | 0.00 | 0.00 | 72 | 1017.1 |
| 20260503052805 | 7 | 0 | 0.0 | 0.0 | 0.00 | 0.00 | 0.00 | 72 | 1017.1 |
| 20260503052704 | 7 | 0 | 0.0 | 0.0 | 0.00 | 0.00 | 0.00 | 72 | 1017.1 |
| 20260503052505 | 7 | 0 | 0.0 | 0.0 | 0.00 | 0.00 | 0.00 | 71 | 1017.1 |
| 20260503052205 | 7 | 0 | 0.0 | 0.0 | 0.00 | 0.00 | 0.00 | 70 | 1017.2 |
| 20260503052104 | 7 | 0 | 0.0 | 0.0 | 0.00 | 0.00 | 0.00 | 71 | 1017.2 |
| 20260503051805 | 7 | 0 | 0.0 | 0.0 | 0.00 | 0.00 | 0.00 | 69 | 1017.1 |
| 20260503051505 | 7 | 0 | 0.0 | 0.0 | 0.00 | 0.00 | 0.00 | 71 | 1017.2 |
| 20260503051404 | 7 | 0 | 0.0 | 0.0 | 0.00 | 0.00 | 0.00 | 72 | 1017.2 |
| 20260503051104 | 7 | 0 | 0.0 | 0.0 | 0.00 | 0.00 | 0.00 | 71 | 1017.2 |
| 20260503051004 | 7 | 0 | 0.0 | 0.0 | 0.00 | 0.00 | 0.00 | 71 | 1017.2 |
| 20260503050905 | 7 | 0 | 0.0 | 0.0 | 0.00 | 0.00 | 0.00 | 73 | 1017.1 |
| 20260503050704 | 6 | 0 | 0.0 | 0.0 | 0.00 | 0.00 | 0.00 | 75 | 1017.2 |
| 20260503050605 | 6 | 0 | 0.0 | 0.0 | 0.00 | 0.00 | 0.00 | 75 | 1017.2 |
| 20260503050504 | 7 | 0 | 0.0 | 0.0 | 0.00 | 0.00 | 0.00 | 76 | 1017.2 |
| 20260503050205 | 6 | 0 | 0.0 | 0.0 | 0.00 | 0.00 | 0.00 | 77 | 1017.2 |
| 20260503045804 | 6 | 0 | 0.0 | 0.0 | 0.00 | 0.00 | 0.00 | 75 | 1017.2 |
| 20260503045605 | 6 | 0 | 0.0 | 0.0 | 0.00 | 0.00 | 0.00 | 75 | 1017.3 |
| 20260503045504 | 6 | 0 | 0.0 | 0.0 | 0.00 | 0.00 | 0.00 | 75 | 1017.3 |
| 20260503045405 | 6 | 0 | 0.0 | 0.0 | 0.00 | 0.00 | 0.00 | 76 | 1017.4 |
| 20260503045204 | 6 | 0 | 0.0 | 0.0 | 0.00 | 0.00 | 0.00 | 76 | 1017.3 |
| 20260503045005 | 6 | 0 | 0.0 | 0.0 | 0.00 | 0.00 | 0.00 | 75 | 1017.3 |
| 20260503044604 | 6 | 0 | 0.0 | 0.0 | 0.00 | 0.00 | 0.00 | 75 | 1017.3 |
| 20260503044505 | 6 | 0 | 0.0 | 0.0 | 0.00 | 0.00 | 0.00 | 74 | 1017.3 |
| 20260503044405 | 6 | 0 | 0.0 | 0.0 | 0.00 | 0.00 | 0.00 | 75 | 1017.3 |
| 20260503044204 | 6 | 0 | 0.0 | 0.0 | 0.00 | 0.00 | 0.00 | 74 | 1017.3 |
| 20260503044105 | 6 | 0 | 0.0 | 0.0 | 0.00 | 0.00 | 0.00 | 73 | 1017.2 |
| 20260503044004 | 6 | 0 | 0.0 | 0.0 | 0.00 | 0.00 | 0.00 | 73 | 1017.2 |
| 20260503043704 | 7 | 0 | 0.0 | 0.0 | 0.00 | 0.00 | 0.00 | 72 | 1017.2 |
| 20260503043604 | 7 | 0 | 0.0 | 0.0 | 0.00 | 0.00 | 0.00 | 72 | 1017.2 |
| 20260503043105 | 7 | 0 | 0.0 | 0.0 | 0.00 | 0.00 | 0.00 | 73 | 1017.2 |
| 20260503042805 | 7 | 0 | 0.0 | 0.0 | 0.00 | 0.00 | 0.00 | 72 | 1017.2 |
| 20260503042705 | 7 | 0 | 0.0 | 0.0 | 0.00 | 0.00 | 0.00 | 72 | 1017.2 |
| 20260503042605 | 7 | 0 | 0.0 | 0.0 | 0.00 | 0.00 | 0.00 | 73 | 1017.2 |
| 20260503042505 | 7 | 0 | 0.0 | 0.0 | 0.00 | 0.00 | 0.00 | 75 | 1017.2 |
| 20260503042404 | 7 | 0 | 0.0 | 0.0 | 0.00 | 0.00 | 0.00 | 75 | 1017.1 |
| 20260503042305 | 7 | 0 | 0.0 | 0.0 | 0.00 | 0.00 | 0.00 | 74 | 1017.1 |
| 20260503042104 | 7 | 0 | 0.0 | 0.0 | 0.00 | 0.00 | 0.00 | 72 | 1017.1 |
| 20260503042004 | 7 | 0 | 0.0 | 0.0 | 0.00 | 0.00 | 0.00 | 72 | 1017.1 |
| 20260503041804 | 7 | 0 | 0.0 | 0.0 | 0.00 | 0.00 | 0.00 | 73 | 1017.2 |
| 20260503041404 | 7 | 0 | 0.0 | 0.0 | 0.00 | 0.00 | 0.00 | 74 | 1017.1 |
| 20260503041005 | 7 | 0 | 0.0 | 0.0 | 0.00 | 0.00 | 0.00 | 73 | 1017.0 |
| 20260503040904 | 7 | 0 | 0.0 | 0.0 | 0.00 | 0.00 | 0.00 | 71 | 1017.0 |
| 20260503040404 | 7 | 0 | 0.0 | 0.0 | 0.00 | 0.00 | 0.00 | 75 | 1016.9 |
| 20260503040305 | 7 | 0 | 0.0 | 0.0 | 0.00 | 0.00 | 0.00 | 77 | 1016.9 |
| 20260503040104 | 7 | 0 | 0.0 | 0.0 | 0.00 | 0.00 | 0.00 | 74 | 1016.9 |
| 20260503035604 | 7 | 0 | 0.0 | 0.0 | 0.00 | 0.00 | 0.00 | 71 | 1017.0 |
| 20260503035505 | 7 | 0 | 0.0 | 0.0 | 0.00 | 0.00 | 0.00 | 71 | 1016.9 |
| 20260503035404 | 7 | 0 | 0.0 | 0.0 | 0.00 | 0.00 | 0.00 | 72 | 1016.9 |
| 20260503035104 | 7 | 0 | 0.0 | 0.0 | 0.00 | 0.00 | 0.00 | 74 | 1016.8 |
| 20260503035005 | 8 | 0 | 0.0 | 0.0 | 0.00 | 0.00 | 0.00 | 69 | 1016.8 |